User: anonymous   Login
Location: Maddington
(51.2000°N, 1.9167°W)
Time: 23:45:14
(UTC+00:00)
Language:

Cosmos 1125 Rocket - Orbit

View from above orbital plane
View from above orbital plane
View from above satellite
View from above satellite

Ground track
Ground track

The orbit data is extracted from the following two-line orbital elements,

1 11511U 79078B   21127.72090872  .00000004  00000-0  10244-4 0  9997
2 11511  74.0369 224.0192 0014635 122.7274 237.5292 14.36924432182643
Epoch (UTC): 07 May 2021 17:18:06
Eccentricity: 0.0014635
inclination: 74.0369°
perigee height: 758 km
apogee height: 779 km
right ascension of ascending node: 224.0192°
argument of perigee: 122.7274°
revolutions per day: 14.36924432
mean anomaly at epoch: 237.5292°
orbit number at epoch: 18264

The dashed part of the orbit path shows where the satellite is in the earth's shadow,  

DLR